Location: Joshua Tree Astronomy Arts Theater
(34.2052°N, 116.2434°W)
Time: 10:28:36
(UTC-07:00)

Envisat - Visible Passes

Search period start: 15 June 2025 00:00
Search period end: 25 June 2025 00:00
Orbit: 761 x 763 km, 98.3° (Epoch: 15 June)

Date Brightness Start Highest point End Pass type
(mag) Time Alt. Az. Time Alt. Az. Time Alt. Az.
15 Jun 4.6 02:44:08 10° NE 02:48:21 26° E 02:50:20 20° SE visible
15 Jun 4.0 04:22:51 10° N 04:27:12 30° WNW 04:30:27 15° WSW visible
16 Jun 2.9 03:44:39 10° N 03:49:42 72° WNW 03:52:19 29° SSW visible
17 Jun 3.8 03:07:10 10° NNE 03:12:01 46° E 03:14:11 29° SSE visible
17 Jun 4.7 04:47:16 10° NNW 04:50:33 18° WNW 04:53:49 10° WSW visible
18 Jun 5.0 02:30:38 10° NE 02:34:09 19° E 02:36:02 15° ESE visible
18 Jun 3.6 04:08:28 10° N 04:13:11 41° WNW 04:16:09 20° SW visible
19 Jun 3.0 03:30:32 10° NNE 03:35:37 82° ESE 03:38:01 32° S visible
20 Jun 4.3 02:53:19 10° NE 02:57:51 33° E 02:59:52 24° SE visible
20 Jun 4.3 04:32:35 10° NNW 04:36:34 24° WNW 04:40:00 12° WSW visible
21 Jun 5.4 02:17:34 10° ENE 02:19:55 13° E 02:21:42 11° ESE visible
21 Jun 3.2 03:54:11 10° N 03:59:08 57° WNW 04:01:51 26° SW visible
22 Jun 3.4 03:16:30 10° NNE 03:21:30 58° E 03:23:41 32° SSE visible
22 Jun 4.9 04:57:19 10° NW 04:59:53 14° WNW 05:02:26 10° W visible
23 Jun 4.8 02:39:38 10° NE 02:43:40 24° E 02:45:31 19° SE visible
23 Jun 3.9 04:18:06 10° N 04:22:34 32° WNW 04:25:40 17° WSW visible
24 Jun 2.9 03:39:58 10° N 03:45:03 80° WNW 03:47:31 31° SSW visible
